User: anonymous   Login
Location: Unspecified
(0.0000°N, 0.0000°E)
Time: 20:38:33
(UTC+00:00)
Language:

Vela 6A - Orbit

View from above orbital plane
View from above orbital plane
View from above satellite
View from above satellite

Ground track
Ground track

The orbit data is extracted from the following two-line orbital elements,

1  4366U 70027A   19044.76690080  .00001248  00000-0  00000+0 0  9993
2  4366  37.0952 151.7189 8334418  87.5066   0.6945  0.21468707 31960
Epoch (UTC): 13 February 2019 18:24:20
Eccentricity: 0.8334418
inclination: 37.0952°
perigee height: 13244 km
apogee height: 209625 km
right ascension of ascending node: 151.7189°
argument of perigee: 87.5066°
revolutions per day: 0.21468707
mean anomaly at epoch: 0.6945°
orbit number at epoch: 3196

The dashed part of the orbit path shows where the satellite is in the earth's shadow,  

DLR